Flag for Sweden Weather past 2 weeks in Halmstad, Sweden

37 °F

Light rain. Low clouds.

Feels Like: 27 °F
Forecast: 36 / 43 °F
Wind: 18 mph from Southwest

Location: Halmstad Swedish Air Force Base

Current Time: Nov 25, 2015 at 3:38:09 AM

Latest Report: Nov 25, 2015 at 2:50 AM

Visibility: N/A

Pressure: 29.56 "Hg

Humidity: 93%

Dew point: 36 °F

Location of HalmstadLocation

Historic Weather in Halmstad — Graph


Halmstad temperature yesterday

Maximum temperature yesterday: 43 °F (at 6:50 AM)
Minimum temperature yesterday: 37 °F (at 11:20 PM)
Average temperature yesterday: 40 °F

Past Weeks' High & Low Weather Summary

High55 °F (Nov 10, 1:50 PM)100% (Nov 22, 8:20 AM)30.09 "Hg (Nov 22, 8:20 AM)
Low16 °F (Nov 23, 7:20 AM)51% (Nov 22, 12:20 PM)29.09 "Hg (Nov 18, 3:50 AM)
Average43 °F83%29.64 "Hg
* Reported Nov 10 2:20 AM — Nov 25 2:20 AM, Halmstad, Weather by CustomWeather, © 2015

Note: Actual official high and low records may vary slightly from our data, if they occured in-between our weather recording intervals... More about our weather records


Halmstad weather history for previous 24 hours

Time TempWeatherWind HumidityBarometerVisibility
2:20 AM
Wed, Nov 25
37 °FLight rain. Low clouds.17 mph93%29.56 "HgN/A
1:20 AM37 °FDrizzle. Low clouds.21 mph93%29.59 "HgN/A
12:50 AM37 °FLight rain. Mostly cloudy.18 mph93%29.59 "Hg5 mi
12:20 AM37 °FLight rain. Low clouds.18 mph87%29.59 "Hg4 mi
11:50 PM
Tue, Nov 24
37 °FLight rain. Low clouds.18 mph93%29.59 "HgN/A
11:20 PM37 °FDrizzle. Mostly cloudy.22 mph93%29.62 "Hg6 mi
10:50 PM39 °FLight rain. Low clouds.21 mph87%29.62 "Hg4 mi
10:20 PM39 °FDrizzle. Low clouds.21 mph87%29.62 "HgN/A
9:50 PM39 °FLight rain. Low clouds.23 mph87%29.62 "HgN/A
9:20 PM39 °FDrizzle. Overcast.23 mph87%29.62 "HgN/A
8:50 PM39 °FDrizzle. Overcast.22 mph87%29.62 "HgN/A
8:20 PM39 °FDrizzle. Low clouds.22 mph87%29.65 "Hg3 mi
7:50 PM39 °FLight rain. Overcast.23 mph87%29.65 "Hg4 mi
7:20 PM39 °FLight rain. Overcast.22 mph87%29.65 "HgN/A
6:50 PM39 °FDrizzle. Low clouds.21 mph87%29.68 "HgN/A
6:20 PM39 °FLight rain. Mostly cloudy.23 mph87%29.68 "HgN/A
5:50 PM39 °FLight rain. Low clouds.21 mph87%29.68 "HgN/A
5:20 PM39 °FDrizzle. Low clouds.23 mph87%29.68 "HgN/A
4:50 PM39 °FLight rain. Mostly cloudy.24 mph87%29.71 "HgN/A
4:20 PM39 °FLight rain. Overcast.23 mph87%29.71 "HgN/A
3:50 PM39 °FPassing clouds.22 mph87%29.71 "HgN/A
3:20 PM39 °FPartly sunny.23 mph87%29.71 "HgN/A
2:50 PM39 °FRain. Partly sunny.21 mph93%29.74 "HgN/A
2:20 PM41 °FLight rain. Partly sunny.24 mph87%29.74 "HgN/A
1:50 PM41 °FLight rain. Partly sunny.23 mph87%29.74 "HgN/A
1:20 PM41 °FDrizzle. Partly sunny.25 mph87%29.77 "HgN/A
12:50 PM41 °FRain. Partly sunny.23 mph87%29.77 "HgN/A
12:20 PM41 °FLight rain. Partly sunny.24 mph87%29.77 "HgN/A
11:50 AM41 °FDrizzle. Partly sunny.21 mph87%29.80 "HgN/A
11:20 AM41 °FFog.20 mph87%29.80 "Hg6 mi
10:50 AM41 °FLight rain. Partly sunny.23 mph87%29.80 "Hg6 mi
10:20 AM43 °FPartly sunny.22 mph81%29.83 "HgN/A
9:50 AM43 °FPartly sunny.23 mph81%29.83 "HgN/A
9:20 AM43 °FPartly sunny.23 mph81%29.83 "HgN/A
8:50 AM41 °FPartly sunny.21 mph87%29.83 "HgN/A
7:50 AM43 °FPassing clouds.21 mph87%29.83 "HgN/A
7:20 AM43 °FPassing clouds.20 mph87%29.83 "HgN/A
6:50 AM43 °FPartly cloudy.20 mph87%29.86 "HgN/A
6:20 AM41 °FPartly cloudy.20 mph93%29.86 "HgN/A
5:50 AM41 °FPartly cloudy.18 mph93%29.86 "HgN/A
5:20 AM41 °FPartly cloudy.16 mph93%29.86 "HgN/A
4:50 AM41 °FMostly cloudy.18 mph93%29.86 "HgN/A
3:50 AM41 °FMostly cloudy.20 mph93%29.89 "HgN/A
3:20 AM41 °FLow clouds.18 mph93%29.89 "HgN/A
Weather by CustomWeather, © 2015

See weather overviewHow to use our weather pages